GW3801 Weather Reports


time (UTC)temp
C
wind
direction
speed
KPH
gust
KPH
rain 1hr
cm
rain 24hr
cm
rain mn
cm
humidity
%
barometer
mb
20260506081106 15 244 0.0 0.0 0.00 0.00 0.00 92 1017.3
20260506080604 15 243 0.0 0.0 0.00 0.00 0.00 92 1017.3
20260506073044 15 211 0.0 1.6 0.00 0.00 0.00 89 1017.2
20260506072541 15 186 0.0 1.6 0.00 0.00 0.00 88 1017.1
20260506072039 16 151 0.0 0.0 0.00 0.00 0.00 88 1017.1
20260506071536 16 146 1.6 1.6 0.00 0.00 0.00 88 1017.0
20260506071033 16 272 0.0 0.0 0.00 0.00 0.00 87 1017.0
20260506070531 16 187 0.0 1.6 0.00 0.00 0.00 87 1016.9
20260506062508 16 224 1.6 1.6 0.00 0.00 0.00 86 1017.4
20260506062004 16 155 1.6 1.6 0.00 0.00 0.00 86 1017.5
20260506061500 16 149 0.0 0.0 0.00 0.00 0.00 86 1017.4
20260506060958 16 128 1.6 1.6 0.00 0.00 0.00 86 1017.6
20260506060456 16 166 1.6 3.2 0.00 0.00 0.00 86 1017.6
20260506050925 16 202 0.0 1.6 0.00 0.00 0.00 84 1018.1
20260506050423 16 190 1.6 1.6 0.00 0.00 0.00 84 1018.2
20260506044913 16 234 0.0 1.6 0.00 0.00 0.00 84 1018.5
20260506044411 16 173 1.6 3.2 0.00 0.00 0.00 84 1018.5
20260506043908 16 162 1.6 1.6 0.00 0.00 0.00 84 1018.8
20260506043405 16 216 0.0 0.0 0.00 0.00 0.00 84 1018.5
20260506042903 16 186 1.6 3.2 0.00 0.00 0.00 84 1018.5
20260506042402 16 252 1.6 1.6 0.00 0.00 0.00 84 1018.5
20260506041900 16 157 1.6 3.2 0.00 0.00 0.00 83 1018.6
20260506041357 16 214 1.6 3.2 0.00 0.00 0.00 83 1018.5
20260506040854 16 164 1.6 1.6 0.00 0.00 0.00 83 1018.6
20260506040352 16 164 1.6 1.6 0.00 0.00 0.00 83 1019.0
20260506035848 16 166 0.0 0.0 0.00 0.00 0.00 82 1018.9
20260506035346 16 190 1.6 1.6 0.00 0.00 0.00 82 1018.9
20260506034842 16 122 0.0 0.0 0.00 0.00 0.00 82 1018.6
20260506034340 17 170 0.0 1.6 0.00 0.00 0.00 81 1018.8
20260506033836 17 161 1.6 1.6 0.00 0.00 0.00 81 1018.8
20260506033333 17 164 0.0 1.6 0.00 0.00 0.00 80 1018.6
20260506032830 17 172 3.2 4.8 0.00 0.00 0.00 80 1018.8
20260506032327 17 249 0.0 1.6 0.00 0.00 0.00 79 1018.7
20260506031824 17 224 3.2 3.2 0.00 0.00 0.00 79 1018.8
20260506031321 17 251 3.2 4.8 0.00 0.00 0.00 78 1019.0
20260506030819 17 189 1.6 1.6 0.00 0.00 0.00 78 1018.7
20260506030317 17 162 1.6 1.6 0.00 0.00 0.00 77 1018.7
20260506025813 17 155 1.6 3.2 0.00 0.00 0.00 77 1018.7
20260506025310 18 196 1.6 1.6 0.00 0.00 0.00 77 1018.8
20260506024807 18 173 1.6 1.6 0.00 0.00 0.00 76 1018.7
20260506024303 18 165 1.6 1.6 0.00 0.00 0.00 76 1018.8
20260506023759 18 186 4.8 6.4 0.00 0.00 0.00 75 1018.8
20260506023257 18 182 3.2 3.2 0.00 0.00 0.00 75 1018.7
20260506022753 18 166 1.6 1.6 0.00 0.00 0.00 75 1018.7
20260506022251 18 251 1.6 1.6 0.00 0.00 0.00 74 1018.6
20260506021749 18 175 0.0 1.6 0.00 0.00 0.00 74 1018.5
20260506021246 18 254 3.2 3.2 0.00 0.00 0.00 74 1018.5
20260506020742 18 187 1.6 1.6 0.00 0.00 0.00 73 1018.5
20260506020240 18 211 3.2 3.2 0.00 0.00 0.00 74 1018.4
20260506015738 18 161 1.6 3.2 0.00 0.00 0.00 74 1018.5
20260506015235 18 164 1.6 3.2 0.00 0.00 0.00 74 1018.5
20260506014732 18 255 3.2 4.8 0.00 0.00 0.00 74 1018.3
20260506014228 19 21 3.2 4.8 0.00 0.00 0.00 74 1018.3
20260506013726 19 165 0.0 1.6 0.00 0.00 0.00 74 1018.5
20260506013223 19 222 1.6 1.6 0.00 0.00 0.00 74 1018.3
20260506012719 19 176 1.6 3.2 0.00 0.00 0.00 74 1018.3
20260506012216 19 127 4.8 6.4 0.00 0.00 0.00 74 1018.4
20260506011713 19 187 3.2 4.8 0.00 0.00 0.00 74 1018.3
20260506011209 20 215 3.2 3.2 0.00 0.00 0.00 73 1018.3
20260506010708 20 110 3.2 3.2 0.00 0.00 0.00 73 1018.0
20260506010205 20 190 3.2 3.2 0.00 0.00 0.00 72 1018.2
20260506005702 20 162 3.2 3.2 0.00 0.00 0.00 72 1018.1
20260506005159 20 134 4.8 9.7 0.00 0.00 0.00 72 1017.9
20260506004655 20 156 3.2 3.2 0.00 0.00 0.00 72 1018.0
20260506004152 20 170 3.2 3.2 0.00 0.00 0.00 71 1017.8
20260506003648 20 167 3.2 3.2 0.00 0.00 0.00 70 1017.8
20260506003145 20 150 4.8 6.4 0.00 0.00 0.00 70 1017.7
20260506002641 20 158 3.2 4.8 0.00 0.00 0.00 70 1017.6
20260506002137 20 215 3.2 3.2 0.00 0.00 0.00 69 1017.7
20260506001633 21 58 3.2 4.8 0.00 0.00 0.00 69 1017.6
20260506001131 21 141 4.8 4.8 0.00 0.00 0.00 68 1017.4
20260506000628 21 245 3.2 4.8 0.00 0.00 0.00 68 1017.5
20260506000125 21 149 3.2 4.8 0.00 0.00 0.00 67 1017.4
20260505235623 21 214 3.2 4.8 0.00 0.00 0.00 67 1017.5
20260505235120 21 193 3.2 3.2 0.00 0.00 0.00 66 1017.5
20260505234617 21 249 4.8 6.4 0.00 0.00 0.00 66 1017.6
20260505234113 21 187 3.2 3.2 0.00 0.00 0.00 66 1017.6
20260505233611 21 137 3.2 4.8 0.00 0.00 0.00 65 1017.7
20260505233108 22 254 3.2 4.8 0.00 0.00 0.00 65 1017.5
20260505232606 22 147 4.8 6.4 0.00 0.00 0.00 64 1017.5
20260505232103 22 199 3.2 4.8 0.00 0.00 0.00 63 1017.4
20260505231600 22 184 3.2 4.8 0.00 0.00 0.00 63 1017.3
20260505231059 23 341 3.2 3.2 0.00 0.00 0.00 62 1017.4
20260505230556 23 190 3.2 4.8 0.00 0.00 0.00 62 1017.2
20260505230052 23 273 1.6 3.2 0.00 0.00 0.00 62 1017.2
20260505225549 23 151 4.8 4.8 0.00 0.00 0.00 61 1017.0
20260505225045 23 289 4.8 4.8 0.00 0.00 0.00 61 1017.1
20260505224542 23 307 1.6 3.2 0.00 0.00 0.00 61 1017.3
20260505224039 23 158 4.8 6.4 0.00 0.00 0.00 61 1017.4
20260505223536 23 239 3.2 4.8 0.00 0.00 0.00 60 1017.2
20260505223032 23 142 3.2 4.8 0.00 0.00 0.00 59 1017.1
20260505222529 24 99 3.2 4.8 0.00 0.00 0.00 58 1017.2
20260505222025 24 131 1.6 1.6 0.00 0.00 0.00 59 1016.9
20260505221522 24 152 1.6 1.6 0.00 0.00 0.00 57 1017.0
20260505221019 25 161 4.8 4.8 0.00 0.00 0.00 56 1017.1
20260505220516 25 10 3.2 4.8 0.00 0.00 0.00 55 1017.3
20260505220014 25 131 3.2 4.8 0.00 0.00 0.00 55 1017.1
20260505215512 25 194 3.2 4.8 0.00 0.00 0.00 55 1017.1
20260505215009 25 193 4.8 9.7 0.00 0.00 0.00 55 1017.1
20260505214508 25 141 3.2 3.2 0.00 0.00 0.00 54 1017.0
20260505214004 25 147 6.4 9.7 0.00 0.00 0.00 54 1017.2
20260505213502 25 180 4.8 6.4 0.00 0.00 0.00 53 1017.1
20260505212958 25 217 1.6 3.2 0.00 0.00 0.00 54 1016.9
20260505212454 25 131 6.4 9.7 0.00 0.00 0.00 53 1017.3
20260505211951 25 175 6.4 6.4 0.00 0.00 0.00 53 1017.1
20260505211449 25 238 4.8 6.4 0.00 0.00 0.00 53 1017.1
20260505210945 25 165 0.0 1.6 0.00 0.00 0.00 54 1017.0
20260505210442 25 166 3.2 4.8 0.00 0.00 0.00 53 1016.9
20260505205938 25 177 6.4 6.4 0.00 0.00 0.00 52 1016.9
20260505205437 26 179 3.2 3.2 0.00 0.00 0.00 52 1017.0
20260505204933 25 136 4.8 6.4 0.00 0.00 0.00 52 1016.6
20260505204431 25 31 1.6 3.2 0.00 0.00 0.00 52 1016.8
20260505203929 26 274 1.6 3.2 0.00 0.00 0.00 53 1016.8
20260505203425 26 175 4.8 4.8 0.00 0.00 0.00 51 1016.9
20260505202921 26 147 3.2 4.8 0.00 0.00 0.00 52 1016.9
20260505202417 26 148 6.4 11.3 0.00 0.00 0.00 52 1016.9
20260505201914 25 232 3.2 3.2 0.00 0.00 0.00 52 1017.1
20260505201411 25 168 3.2 4.8 0.00 0.00 0.00 51 1017.3
20260505200910 26 162 8.0 11.3 0.00 0.00 0.00 51 1017.1
20260505200406 26 209 3.2 4.8 0.00 0.00 0.00 51 1017.2
20260505195901 26 194 3.2 4.8 0.00 0.00 0.00 52 1017.2
20260505195359 26 229 3.2 3.2 0.00 0.00 0.00 50 1017.4
20260505194856 26 236 1.6 1.6 0.00 0.00 0.00 50 1017.3
20260505194354 26 145 4.8 4.8 0.00 0.00 0.00 47 1017.4
20260505193854 26 247 3.2 3.2 0.00 0.00 0.00 48 1017.5
20260505193352 26 272 1.6 3.2 0.00 0.00 0.00 49 1017.7
20260505192849 26 247 3.2 9.7 0.00 0.00 0.00 48 1017.9
20260505192348 26 188 4.8 4.8 0.00 0.00 0.00 49 1017.9
20260505191845 26 149 1.6 3.2 0.00 0.00 0.00 48 1017.9
20260505191343 25 215 3.2 3.2 0.00 0.00 0.00 48 1018.1
20260505190840 26 204 3.2 3.2 0.00 0.00 0.00 48 1018.0
20260505190335 26 150 1.6 3.2 0.00 0.00 0.00 49 1018.2
20260505185831 26 158 3.2 3.2 0.00 0.00 0.00 49 1018.4
20260505185328 26 254 3.2 4.8 0.00 0.00 0.00 49 1018.3
20260505184824 26 283 3.2 3.2 0.00 0.00 0.00 50 1018.4
20260505184321 26 114 3.2 3.2 0.00 0.00 0.00 49 1018.5
20260505183818 26 204 3.2 3.2 0.00 0.00 0.00 48 1018.5
20260505183315 26 255 3.2 4.8 0.00 0.00 0.00 48 1018.5
20260505182812 26 247 4.8 4.8 0.00 0.00 0.00 48 1018.4
20260505182308 26 179 3.2 3.2 0.00 0.00 0.00 49 1018.3
20260505181805 25 140 3.2 4.8 0.00 0.00 0.00 50 1018.5
20260505181302 26 226 6.4 9.7 0.00 0.00 0.00 48 1018.6
20260505180759 26 228 4.8 6.4 0.00 0.00 0.00 49 1018.7
20260505180255 26 286 1.6 1.6 0.00 0.00 0.00 49 1018.5
20260505175752 25 142 0.0 1.6 0.00 0.00 0.00 48 1018.7
20260505175248 26 190 1.6 1.6 0.00 0.00 0.00 49 1018.9
20260505174745 26 260 1.6 1.6 0.00 0.00 0.00 49 1018.7
20260505174242 26 260 4.8 9.7 0.00 0.00 0.00 49 1018.7
20260505173738 25 162 4.8 4.8 0.00 0.00 0.00 50 1018.6
20260505173235 26 284 0.0 1.6 0.00 0.00 0.00 48 1018.9
20260505172732 25 179 4.8 4.8 0.00 0.00 0.00 49 1019.0
20260505172229 26 216 4.8 6.4 0.00 0.00 0.00 49 1018.9
20260505171729 26 262 3.2 4.8 0.00 0.00 0.00 52 1019.0
20260505171226 25 308 1.6 1.6 0.00 0.00 0.00 53 1018.9
20260505170723 26 282 1.6 1.6 0.00 0.00 0.00 53 1019.1
20260505170220 25 191 3.2 4.8 0.00 0.00 0.00 52 1019.1
20260505165715 25 270 4.8 9.7 0.00 0.00 0.00 53 1019.0
20260505165211 25 279 1.6 1.6 0.00 0.00 0.00 53 1019.1
20260505164707 25 275 0.0 1.6 0.00 0.00 0.00 54 1019.1
20260505164204 25 80 3.2 4.8 0.00 0.00 0.00 53 1019.3
20260505163702 25 248 3.2 3.2 0.00 0.00 0.00 54 1019.4
20260505163200 25 244 4.8 4.8 0.00 0.00 0.00 55 1019.5
20260505162658 25 235 3.2 4.8 0.00 0.00 0.00 53 1019.6
20260505162155 24 234 3.2 3.2 0.00 0.00 0.00 54 1019.8
20260505161651 25 191 4.8 6.4 0.00 0.00 0.00 54 1019.7
20260505161149 23 325 1.6 3.2 0.00 0.00 0.00 57 1019.8
20260505160647 24 299 3.2 4.8 0.00 0.00 0.00 55 1019.8
20260505160144 23 242 4.8 6.4 0.00 0.00 0.00 57 1019.9
20260505153123 24 168 1.6 3.2 0.00 0.00 0.00 57 1019.9
20260505152620 24 233 1.6 1.6 0.00 0.00 0.00 57 1019.9
20260505152115 23 235 3.2 3.2 0.00 0.00 0.00 59 1019.8
20260505151611 23 243 4.8 4.8 0.00 0.00 0.00 59 1019.9
20260505151109 23 305 1.6 1.6 0.00 0.00 0.00 60 1020.0
20260505150605 22 299 6.4 6.4 0.00 0.00 0.00 60 1020.0
20260505140530 22 249 3.2 3.2 0.00 0.00 0.00 66 1019.8
20260505124943 18 292 3.2 3.2 0.00 0.00 0.00 76 1020.4
20260505124440 18 128 3.2 3.2 0.00 0.00 0.00 75 1020.2
20260505123936 18 223 3.2 4.8 0.00 0.00 0.00 77 1020.1
20260505123433 17 261 3.2 4.8 0.00 0.00 0.00 78 1020.1
20260505122929 17 163 1.6 3.2 0.00 0.00 0.00 77 1020.1
20260505122427 17 93 0.0 1.6 0.00 0.00 0.00 78 1020.2
20260505121923 17 147 1.6 1.6 0.00 0.00 0.00 80 1020.3
20260505121420 17 263 1.6 1.6 0.00 0.00 0.00 79 1020.1
20260505120916 17 179 3.2 3.2 0.00 0.00 0.00 80 1020.2
20260505120412 16 254 1.6 1.6 0.00 0.00 0.00 79 1020.0
20260505115911 16 175 1.6 1.6 0.00 0.00 0.00 82 1019.9
20260505115408 16 204 1.6 1.6 0.00 0.00 0.00 82 1020.0
20260505114906 15 147 0.0 0.0 0.00 0.00 0.00 83 1020.0
20260505114402 15 163 3.2 3.2 0.00 0.00 0.00 84 1019.9
20260505113859 15 160 1.6 3.2 0.00 0.00 0.00 84 1019.8
20260505113355 14 153 1.6 1.6 0.00 0.00 0.00 85 1019.6
20260505112851 14 144 1.6 1.6 0.00 0.00 0.00 85 1019.7
20260505112349 13 154 1.6 1.6 0.00 0.00 0.00 86 1019.8
20260505111845 13 160 1.6 3.2 0.00 0.00 0.00 86 1019.7
20260505111340 13 133 0.0 1.6 0.00 0.00 0.00 87 1019.6
20260505110836 13 152 0.0 1.6 0.00 0.00 0.00 88 1019.5
20260505110334 12 160 1.6 1.6 0.00 0.00 0.00 89 1019.6
20260505101809 10 255 0.0 0.0 0.00 0.00 0.00 95 1019.0
20260505101304 10 255 0.0 0.0 0.00 0.00 0.00 95 1018.9
20260505100800 11 255 0.0 0.0 0.00 0.00 0.00 94 1018.8
20260505100257 10 255 0.0 0.0 0.00 0.00 0.00 94 1018.7
20260505095753 10 255 0.0 0.0 0.00 0.00 0.00 94 1018.8
20260505095251 10 255 0.0 0.0 0.00 0.00 0.00 94 1018.6
20260505094746 11 255 0.0 0.0 0.00 0.00 0.00 93 1018.5
20260505094243 11 255 0.0 0.0 0.00 0.00 0.00 93 1018.7
20260505093739 11 255 0.0 0.0 0.00 0.00 0.00 93 1018.6
20260505093237 11 255 0.0 0.0 0.00 0.00 0.00 92 1018.5
20260505092733 11 255 0.0 0.0 0.00 0.00 0.00 91 1018.6
20260505092232 11 255 0.0 0.0 0.00 0.00 0.00 91 1018.5
20260505091729 11 255 0.0 0.0 0.00 0.00 0.00 91 1018.5
20260505091227 11 255 0.0 0.0 0.00 0.00 0.00 91 1018.4
20260505090724 12 255 0.0 0.0 0.00 0.00 0.00 90 1018.4
20260505090222 12 255 0.0 0.0 0.00 0.00 0.00 90 1018.4
20260505085719 12 255 0.0 0.0 0.00 0.00 0.00 90 1018.4
20260505085218 12 256 0.0 0.0 0.00 0.00 0.00 90 1018.3
20260505084714 12 256 0.0 0.0 0.00 0.00 0.00 89 1018.4
20260505084214 12 266 0.0 0.0 0.00 0.00 0.00 89 1018.0
20260505083710 12 266 0.0 0.0 0.00 0.00 0.00 88 1018.1
20260505083207 12 266 0.0 0.0 0.00 0.00 0.00 87 1018.1
20260505082702 12 266 0.0 0.0 0.00 0.00 0.00 86 1018.1
20260505082200 12 266 0.0 0.0 0.00 0.00 0.00 86 1018.2
20260505081655 12 266 0.0 0.0 0.00 0.00 0.00 86 1018.0